sat.trackr.live / text

‹ back to catalog

SDA_1679

NORAD 65989 · 2025-230R

PAYLOAD ACTIVE UNKNOWN

§ Identity

Operator
Country
US
Launch date
2025-10-15
Launch site
AFWTR
Launch vehicle
Mass (kg)
RCS (m²)

External: N2YO · Heavens-Above · Gunter

§ Orbital elements

Epoch: 2026-09-20T21:04:04.951776Z

Period
103.98 min
Inclination
81.3010°
Eccentricity
0.0002767
Mean motion
13.84861202 rev/d
Perigee alt
944.7 km
Apogee alt
948.7 km
Semi-major
7,324.8 km
B*
7.9940e-5
RAAN
122.9281°
Arg perigee
323.2126°
Mean anomaly
36.8841°
Rev number
4,706

§ Raw data

SDA_16791 65989U 25230R   26263.87783509  .00000102  00000+0  79940-4 0  99902 65989  81.3010 122.9281 0002767 323.2126  36.8841 13.84861202 47060

JSON: /api/v1/satellites/65989 · /tle

For live sub-satellite position, see the globe view (requires WebGL).

§ Visibility from observer

Set your observer location to see the next 7 days of passes ≥ 10°. The values pass through the URL so the page stays shareable.

No JS? Fill the form by hand. The geolocation button needs JavaScript.